Regional Weather Roundup
Issued by NWS State College, PA

Home | Current Version | Previous Version | Graphics & Text | Print | Product List | Glossary On
Versions: 1 2 3 4 5 6 7 8 9 10 11 12 13 14 15 16 17 18 19 20 21 22 23 24 25 26 27 28 29 30 31 32 33 34 35 36 37 38 39 40 41 42 43 44 45 46 47 48 49 50
247
ASUS41 KCTP 022103
RWRCTP

REGIONAL WEATHER ROUNDUP
NATIONAL WEATHER SERVICE STATE COLLEGE PA
400 PM EST FRI DEC 02 2016

Note: "fair" indicates few or no clouds below 12,000 feet with no
significant weather and/or obstructions to visibility.

* = STATION THAT DOES NOT REPORT PRECIPITATION /E.G. RAIN...SNOW...ETC/
    THUNDER OR FOG.

PAZ002>004-007>009-013>016-020>023-029>032-022200-
WESTERN PENNSYLVANIA

CITY           SKY/WX    TMP DP  RH WIND       PRES   REMARKS
ERIE           CLOUDY    41  29  62 W17G30    30.01R
MEADVILLE      CLOUDY    35  32  88 W10       30.01R
FRANKLIN*        N/A     36  28  75 W14       30.02R
NEW CASTLE     CLOUDY    38  31  76 SW10      30.06R
BEAVER COUNTY  DRIZZLE   37  30  75 W13       30.06R
BUTLER*        CLOUDY    37  28  70 W12       30.08R
PITTSBURGH INT CLOUDY    40  30  67 SW10G17   30.07R
PITTSBURGH     CLOUDY    37  28  70 SW13      30.07R
INDIANA*       CLOUDY    37  32  81 W15       30.05R HAZE
LATROBE        CLOUDY    37  30  75 W12G23    30.07R
WASHINGTON CO* CLOUDY    37  27  65 SW10G20   30.11R
$$

PAZ004>006-010>012-017>019-024>028-033>037-041-042-045-046-049>053-022200-
CENTRAL PENNSYLVANIA

CITY           SKY/WX    TMP DP  RH WIND       PRES   REMARKS
BRADFORD       CLOUDY    34  30  85 W14G20    29.91R
DUBOIS         CLOUDY    36  28  73 W18G31    29.96R
CLEARFIELD     CLOUDY    38  29  70 W9        29.97R
JOHNSTOWN      CLOUDY    33  28  81 W18G24    29.98R
ALTOONA        CLOUDY    38  28  67 W14       30.01R
STATE COLLEGE  NOT AVBL
WILLIAMSPORT   CLOUDY    44  30  57 W12       29.93R
SELINSGROVE    CLOUDY    43  30  60 VRB5      29.98R
FT INDIANTOWN  CLOUDY    44  26  49 W13G25    29.97R
CAPITAL CITY   CLOUDY    44  26  49 W15G24    30.00R
HARRISBURG     MOCLDY    44  29  55 W15G25    30.00R
YORK           CLEAR     42  29  59 W14G20    30.01F
$$

PAZ038>040-043-044-047-048-054-055-060>062-067>071-022200-
EASTERN PENNSYLVANIA

CITY           SKY/WX    TMP DP  RH WIND       PRES   REMARKS
SCRANTON       CLOUDY    44  30  57 W12       29.88R
MOUNT POCONO   CLOUDY    38  26  62 W15G29    29.84R
ALLENTOWN      CLOUDY    47  28  47 W10G21    29.92R
QUAKERTOWN*    CLOUDY    46  27  46 W13       29.94R
READING        MOCLDY    45  26  47 W12G24    29.95R
LANCASTER      CLEAR     44  29  55 W20       29.98S
COATESVILLE    PTCLDY    43  27  52 W15       29.98S
POTTSTOWN      PTCLDY    46  27  47 W10G20    29.96R
BLUE BELL      MOCLDY    45  28  53 W10G17    29.94R
DOYLESTOWN     MOCLDY    49  28  44 W16G24    29.92R
WILLOW GROVE   NOT AVBL
NORTH PHILA    CLOUDY    50  28  42 W16G25    29.95R
PHILADELPHIA   PTCLDY    49  26  41 W23G30    29.96R
$$




USA.gov is the U.S. government's official web portal to all federal, state and local government web resources and services.